{"data":{"norad_id":63012,"epoch":"2026-05-24T23:36:58.870080Z","epoch_age_seconds":79494,"freshness":"FRESH","line1":"1 63012U 25032H   26144.98401470  .00212653  00000+0  16193-2 0  9994","line2":"2 63012  42.9997  95.3980 0001609 262.8498  97.2186 15.70831606 74217","mean_motion":15.70831606,"eccentricity":0.0001609,"inclination_deg":42.9997,"raan_deg":95.398,"arg_perigee_deg":262.8498,"mean_anomaly_deg":97.2186,"bstar":0.0016193,"rev_number":7421,"period_min":91.671188337421,"perigee_km":355.43544713939,"apogee_km":357.60265945734,"semimajor_km":6734.6560532984,"source":"CELESTRAK","updated_at":"2026-05-25T13:38:19.836435Z"}}